Year,Month,Day,Hour,Minute,Value (Times are PST for temperature in C)
2017,11,17,00,00,5.10
2017,11,17,00,01,5.10
2017,11,17,00,02,5.10
2017,11,17,00,03,5.10
2017,11,17,00,04,5.10
2017,11,17,00,05,5.10
2017,11,17,00,06,5.00
2017,11,17,00,07,5.00
2017,11,17,00,08,5.00
2017,11,17,00,09,5.10
2017,11,17,00,10,5.10
2017,11,17,00,11,5.20
2017,11,17,00,12,5.20
2017,11,17,00,13,5.20
2017,11,17,00,14,5.20
2017,11,17,00,15,5.20
2017,11,17,00,16,5.10
2017,11,17,00,17,5.10
2017,11,17,00,18,5.10
2017,11,17,00,19,5.10
2017,11,17,00,20,5.10
2017,11,17,00,21,5.10
2017,11,17,00,22,5.10
2017,11,17,00,23,5.10
2017,11,17,00,24,5.00
2017,11,17,00,25,5.00
2017,11,17,00,26,5.00
2017,11,17,00,27,4.90
2017,11,17,00,28,4.90
2017,11,17,00,29,4.90
2017,11,17,00,30,4.90
2017,11,17,00,31,4.90
2017,11,17,00,32,4.80
2017,11,17,00,33,4.80
2017,11,17,00,34,4.80
2017,11,17,00,35,4.80
2017,11,17,00,36,4.80
2017,11,17,00,37,4.70
2017,11,17,00,38,4.70
2017,11,17,00,39,4.70
2017,11,17,00,40,4.70
2017,11,17,00,41,4.60
2017,11,17,00,42,4.60
2017,11,17,00,43,4.60
2017,11,17,00,44,4.50
2017,11,17,00,45,4.50
2017,11,17,00,46,4.40
2017,11,17,00,47,4.40
2017,11,17,00,48,4.40
2017,11,17,00,49,4.40
2017,11,17,00,50,4.40
2017,11,17,00,51,4.40
2017,11,17,00,52,4.40
2017,11,17,00,53,4.40
2017,11,17,00,54,4.40
2017,11,17,00,55,4.40
2017,11,17,00,56,4.40
2017,11,17,00,57,4.30
2017,11,17,00,58,4.30
2017,11,17,00,59,4.30
2017,11,17,01,00,4.30
2017,11,17,01,01,4.30
2017,11,17,01,02,4.30
2017,11,17,01,03,4.30
2017,11,17,01,04,4.30
2017,11,17,01,05,4.30
2017,11,17,01,06,4.30
2017,11,17,01,07,4.30
2017,11,17,01,08,4.30
2017,11,17,01,09,4.30
2017,11,17,01,10,4.30
2017,11,17,01,11,4.30
2017,11,17,01,12,4.30
2017,11,17,01,13,4.30
2017,11,17,01,14,4.20
2017,11,17,01,15,4.20
2017,11,17,01,16,4.20
2017,11,17,01,17,4.20
2017,11,17,01,18,4.20
2017,11,17,01,19,4.20
2017,11,17,01,20,4.20
2017,11,17,01,21,4.20
2017,11,17,01,22,4.20
2017,11,17,01,23,4.20
2017,11,17,01,24,4.20
2017,11,17,01,25,4.20
2017,11,17,01,26,4.20
2017,11,17,01,27,4.20
2017,11,17,01,28,4.20
2017,11,17,01,29,4.20
2017,11,17,01,30,4.30
2017,11,17,01,31,4.30
2017,11,17,01,32,4.30
2017,11,17,01,33,4.30
2017,11,17,01,34,4.40
2017,11,17,01,35,4.40
2017,11,17,01,36,4.40
2017,11,17,01,37,4.50
2017,11,17,01,38,4.50
2017,11,17,01,39,4.50
2017,11,17,01,40,4.50
2017,11,17,01,41,4.50
2017,11,17,01,42,4.50
2017,11,17,01,43,4.50
2017,11,17,01,44,4.40
2017,11,17,01,45,4.40
2017,11,17,01,46,4.40
2017,11,17,01,47,4.40
2017,11,17,01,48,4.40
2017,11,17,01,49,4.40
2017,11,17,01,50,4.40
2017,11,17,01,51,4.40
2017,11,17,01,52,4.30
2017,11,17,01,53,4.30
2017,11,17,01,54,4.30
2017,11,17,01,55,4.30
2017,11,17,01,56,4.30
2017,11,17,01,57,4.30
2017,11,17,01,58,4.30
2017,11,17,01,59,4.30
2017,11,17,02,00,4.30
2017,11,17,02,01,4.30
2017,11,17,02,02,4.30
2017,11,17,02,03,4.30
2017,11,17,02,04,4.30
2017,11,17,02,05,4.30
2017,11,17,02,06,4.30
2017,11,17,02,07,4.30
2017,11,17,02,08,4.30
2017,11,17,02,09,4.20
2017,11,17,02,10,4.30
2017,11,17,02,11,4.30
2017,11,17,02,12,4.20
2017,11,17,02,13,4.20
2017,11,17,02,14,4.20
2017,11,17,02,15,4.20
2017,11,17,02,16,4.20
2017,11,17,02,17,4.20
2017,11,17,02,18,4.20
2017,11,17,02,19,4.20
2017,11,17,02,20,4.20
2017,11,17,02,21,4.30
2017,11,17,02,22,4.20
2017,11,17,02,23,4.20
2017,11,17,02,24,4.20
2017,11,17,02,25,4.30
2017,11,17,02,26,4.30
2017,11,17,02,27,4.30
2017,11,17,02,28,4.30
2017,11,17,02,29,4.30
2017,11,17,02,30,4.30
2017,11,17,02,31,4.40
2017,11,17,02,32,4.40
2017,11,17,02,33,4.40
2017,11,17,02,34,4.40
2017,11,17,02,35,4.40
2017,11,17,02,36,4.40
2017,11,17,02,37,4.40
2017,11,17,02,38,4.40
2017,11,17,02,39,4.40
2017,11,17,02,40,4.30
2017,11,17,02,41,4.30
2017,11,17,02,42,4.30
2017,11,17,02,43,4.30
2017,11,17,02,44,4.30
2017,11,17,02,45,4.30
2017,11,17,02,46,4.30
2017,11,17,02,47,4.30
2017,11,17,02,48,4.30
2017,11,17,02,49,4.30
2017,11,17,02,50,4.30
2017,11,17,02,51,4.30
2017,11,17,02,52,4.30
2017,11,17,02,53,4.30
2017,11,17,02,54,4.30
2017,11,17,02,55,4.30
2017,11,17,02,56,4.30
2017,11,17,02,57,4.20
2017,11,17,02,58,4.20
2017,11,17,02,59,4.20
2017,11,17,03,00,4.20
2017,11,17,03,01,4.20
2017,11,17,03,02,4.10
2017,11,17,03,03,4.10
2017,11,17,03,04,4.10
2017,11,17,03,05,4.10
2017,11,17,03,06,4.10
2017,11,17,03,07,4.10
2017,11,17,03,08,4.10
2017,11,17,03,09,4.10
2017,11,17,03,10,4.10
2017,11,17,03,11,4.10
2017,11,17,03,12,4.10
2017,11,17,03,13,4.00
2017,11,17,03,14,4.00
2017,11,17,03,15,3.90
2017,11,17,03,16,4.00
2017,11,17,03,17,4.00
2017,11,17,03,18,4.00
2017,11,17,03,19,4.00
2017,11,17,03,20,4.00
2017,11,17,03,21,4.10
2017,11,17,03,22,4.10
2017,11,17,03,23,4.10
2017,11,17,03,24,4.10
2017,11,17,03,25,4.20
2017,11,17,03,26,4.20
2017,11,17,03,27,4.20
2017,11,17,03,28,4.30
2017,11,17,03,29,4.30
2017,11,17,03,30,4.40
2017,11,17,03,31,4.40
2017,11,17,03,32,4.50
2017,11,17,03,33,4.60
2017,11,17,03,34,4.60
2017,11,17,03,35,4.60
2017,11,17,03,36,4.60
2017,11,17,03,37,4.70
2017,11,17,03,38,4.70
2017,11,17,03,39,4.70
2017,11,17,03,40,4.70
2017,11,17,03,41,4.70
2017,11,17,03,42,4.80
2017,11,17,03,43,4.80
2017,11,17,03,44,4.80
2017,11,17,03,45,4.80
2017,11,17,03,46,4.90
2017,11,17,03,47,4.90
2017,11,17,03,48,4.90
2017,11,17,03,49,4.90
2017,11,17,03,50,4.90
2017,11,17,03,51,4.90
2017,11,17,03,52,4.90
2017,11,17,03,53,4.90
2017,11,17,03,54,4.90
2017,11,17,03,55,4.90
2017,11,17,03,56,4.80
2017,11,17,03,57,4.80
2017,11,17,03,58,4.80
2017,11,17,03,59,4.80
2017,11,17,04,00,4.80
2017,11,17,04,01,4.70
2017,11,17,04,02,4.70
2017,11,17,04,03,4.70
2017,11,17,04,04,4.70
2017,11,17,04,05,4.60
2017,11,17,04,06,4.60
2017,11,17,04,07,4.60
2017,11,17,04,08,4.60
2017,11,17,04,09,4.60
2017,11,17,04,10,4.60
2017,11,17,04,11,4.60
2017,11,17,04,12,4.60
2017,11,17,04,13,4.60
2017,11,17,04,14,4.60
2017,11,17,04,15,4.60
2017,11,17,04,16,4.70
2017,11,17,04,17,4.70
2017,11,17,04,18,4.70
2017,11,17,04,19,4.70
2017,11,17,04,20,4.70
2017,11,17,04,21,4.60
2017,11,17,04,22,4.60
2017,11,17,04,23,4.70
2017,11,17,04,24,4.60
2017,11,17,04,25,4.60
2017,11,17,04,26,4.60
2017,11,17,04,27,4.60
2017,11,17,04,28,4.60
2017,11,17,04,29,4.60
2017,11,17,04,30,4.60
2017,11,17,04,31,4.50
2017,11,17,04,32,4.50
2017,11,17,04,33,4.50
2017,11,17,04,34,4.50
2017,11,17,04,35,4.50
2017,11,17,04,36,4.50
2017,11,17,04,37,4.50
2017,11,17,04,38,4.50
2017,11,17,04,39,4.50
2017,11,17,04,40,4.50
2017,11,17,04,41,4.50
2017,11,17,04,42,4.60
2017,11,17,04,43,4.60
2017,11,17,04,44,4.60
2017,11,17,04,45,4.70
2017,11,17,04,46,4.70
2017,11,17,04,47,4.80
2017,11,17,04,48,4.80
2017,11,17,04,49,4.80
2017,11,17,04,50,4.80
2017,11,17,04,51,4.80
2017,11,17,04,52,4.90
2017,11,17,04,53,4.90
2017,11,17,04,54,4.90
2017,11,17,04,55,4.90
2017,11,17,04,56,4.90
2017,11,17,04,57,4.90
2017,11,17,04,58,4.90
2017,11,17,04,59,4.90
2017,11,17,05,00,4.90
2017,11,17,05,01,4.90
2017,11,17,05,02,4.90
2017,11,17,05,03,4.90
2017,11,17,05,04,4.90
2017,11,17,05,05,4.90
2017,11,17,05,06,4.90
2017,11,17,05,07,4.90
2017,11,17,05,08,4.90
2017,11,17,05,09,4.90
2017,11,17,05,10,4.90
2017,11,17,05,11,4.90
2017,11,17,05,12,4.80
2017,11,17,05,13,4.80
2017,11,17,05,14,4.80
2017,11,17,05,15,4.80
2017,11,17,05,16,4.70
2017,11,17,05,17,4.70
2017,11,17,05,18,4.70
2017,11,17,05,19,4.60
2017,11,17,05,20,4.60
2017,11,17,05,21,4.60
2017,11,17,05,22,4.60
2017,11,17,05,23,4.60
2017,11,17,05,24,4.50
2017,11,17,05,25,4.50
2017,11,17,05,26,4.50
2017,11,17,05,27,4.50
2017,11,17,05,28,4.40
2017,11,17,05,29,4.40
2017,11,17,05,30,4.40
2017,11,17,05,31,4.40
2017,11,17,05,32,4.40
2017,11,17,05,33,4.30
2017,11,17,05,34,4.30
2017,11,17,05,35,4.30
2017,11,17,05,36,4.30
2017,11,17,05,37,4.20
2017,11,17,05,38,4.20
2017,11,17,05,39,4.20
2017,11,17,05,40,4.20
2017,11,17,05,41,4.10
2017,11,17,05,42,4.10
2017,11,17,05,43,4.10
2017,11,17,05,44,4.00
2017,11,17,05,45,4.00
2017,11,17,05,46,4.00
2017,11,17,05,47,3.90
2017,11,17,05,48,3.90
2017,11,17,05,49,3.90
2017,11,17,05,50,3.80
2017,11,17,05,51,3.80
2017,11,17,05,52,3.80
2017,11,17,05,53,3.80
2017,11,17,05,54,3.80
2017,11,17,05,55,3.70
2017,11,17,05,56,3.70
2017,11,17,05,57,3.70
2017,11,17,05,58,3.70
2017,11,17,05,59,3.60
2017,11,17,06,00,3.60
2017,11,17,06,01,3.60
2017,11,17,06,02,3.50
2017,11,17,06,03,3.50
2017,11,17,06,04,3.50
2017,11,17,06,05,3.40
2017,11,17,06,06,3.40
2017,11,17,06,07,3.40
2017,11,17,06,08,3.40
2017,11,17,06,09,3.40
2017,11,17,06,10,3.40
2017,11,17,06,11,3.40
2017,11,17,06,12,3.40
2017,11,17,06,13,3.50
2017,11,17,06,14,3.50
2017,11,17,06,15,3.60
2017,11,17,06,16,3.70
2017,11,17,06,17,3.70
2017,11,17,06,18,3.80
2017,11,17,06,19,3.80
2017,11,17,06,20,3.90
2017,11,17,06,21,3.90
2017,11,17,06,22,3.90
2017,11,17,06,23,4.00
2017,11,17,06,24,4.00
2017,11,17,06,25,4.10
2017,11,17,06,26,4.10
2017,11,17,06,27,4.10
2017,11,17,06,28,4.10
2017,11,17,06,29,4.10
2017,11,17,06,30,4.10
2017,11,17,06,31,4.10
2017,11,17,06,32,4.10
2017,11,17,06,33,4.10
2017,11,17,06,34,4.10
2017,11,17,06,35,4.10
2017,11,17,06,36,4.10
2017,11,17,06,37,4.10
2017,11,17,06,38,4.10
2017,11,17,06,39,4.10
2017,11,17,06,40,4.10
2017,11,17,06,41,4.10
2017,11,17,06,42,4.20
2017,11,17,06,43,4.20
2017,11,17,06,44,4.20
2017,11,17,06,45,4.20
2017,11,17,06,46,4.20
2017,11,17,06,47,4.20
2017,11,17,06,48,4.20
2017,11,17,06,49,4.20
2017,11,17,06,50,4.20
2017,11,17,06,51,4.20
2017,11,17,06,52,4.20
2017,11,17,06,53,4.20
2017,11,17,06,54,4.10
2017,11,17,06,55,4.10
2017,11,17,06,56,4.00
2017,11,17,06,57,4.00
2017,11,17,06,58,3.90
2017,11,17,06,59,3.90
2017,11,17,07,00,3.90
2017,11,17,07,01,3.80
2017,11,17,07,02,3.80
2017,11,17,07,03,3.80
2017,11,17,07,04,3.80
2017,11,17,07,05,3.80
2017,11,17,07,06,3.70
2017,11,17,07,07,3.70
2017,11,17,07,08,3.70
2017,11,17,07,09,3.70
2017,11,17,07,10,3.70
2017,11,17,07,11,3.70
2017,11,17,07,12,3.70
2017,11,17,07,13,3.70
2017,11,17,07,14,3.70
2017,11,17,07,15,3.80
2017,11,17,07,16,3.80
2017,11,17,07,17,3.80
2017,11,17,07,18,3.80
2017,11,17,07,19,3.80
2017,11,17,07,20,3.80
2017,11,17,07,21,3.80
2017,11,17,07,22,3.80
2017,11,17,07,23,3.90
2017,11,17,07,24,3.90
2017,11,17,07,25,3.90
2017,11,17,07,26,3.90
2017,11,17,07,27,3.90
2017,11,17,07,28,3.90
2017,11,17,07,29,4.00
2017,11,17,07,30,4.00
2017,11,17,07,31,4.00
2017,11,17,07,32,4.00
2017,11,17,07,33,4.00
2017,11,17,07,34,4.00
2017,11,17,07,35,4.10
2017,11,17,07,36,4.10
2017,11,17,07,37,4.10
2017,11,17,07,38,4.10
2017,11,17,07,39,4.20
2017,11,17,07,40,4.20
2017,11,17,07,41,4.20
2017,11,17,07,42,4.30
2017,11,17,07,43,4.30
2017,11,17,07,44,4.40
2017,11,17,07,45,4.40
2017,11,17,07,46,4.40
2017,11,17,07,47,4.50
2017,11,17,07,48,4.50
2017,11,17,07,49,4.50
2017,11,17,07,50,4.50
2017,11,17,07,51,4.50
2017,11,17,07,52,4.50
2017,11,17,07,53,4.50
2017,11,17,07,54,4.50
2017,11,17,07,55,4.50
2017,11,17,07,56,4.40
2017,11,17,07,57,4.40
2017,11,17,07,58,4.30
2017,11,17,07,59,4.30
2017,11,17,08,00,4.20
2017,11,17,08,01,4.20
2017,11,17,08,02,4.10
2017,11,17,08,03,4.10
2017,11,17,08,04,4.00
2017,11,17,08,05,4.00
2017,11,17,08,06,4.00
2017,11,17,08,07,4.00
2017,11,17,08,08,4.00
2017,11,17,08,09,4.00
2017,11,17,08,10,4.00
2017,11,17,08,11,4.00
2017,11,17,08,12,4.00
2017,11,17,08,13,4.00
2017,11,17,08,14,4.00
2017,11,17,08,15,4.10
2017,11,17,08,16,4.10
2017,11,17,08,17,4.10
2017,11,17,08,18,4.10
2017,11,17,08,19,4.20
2017,11,17,08,20,4.30
2017,11,17,08,21,4.30
2017,11,17,08,22,4.30
2017,11,17,08,23,4.40
2017,11,17,08,24,4.40
2017,11,17,08,25,4.40
2017,11,17,08,26,4.40
2017,11,17,08,27,4.50
2017,11,17,08,28,4.50
2017,11,17,08,29,4.50
2017,11,17,08,30,4.60
2017,11,17,08,31,4.60
2017,11,17,08,32,4.60
2017,11,17,08,33,4.70
2017,11,17,08,34,4.70
2017,11,17,08,35,4.70
2017,11,17,08,36,4.70
2017,11,17,08,37,4.80
2017,11,17,08,38,4.80
2017,11,17,08,39,4.80
2017,11,17,08,40,4.80
2017,11,17,08,41,4.80
2017,11,17,08,42,4.90
2017,11,17,08,43,4.90
2017,11,17,08,44,4.90
2017,11,17,08,45,4.90
2017,11,17,08,46,5.00
2017,11,17,08,47,5.00
2017,11,17,08,48,5.00
2017,11,17,08,49,5.10
2017,11,17,08,50,5.10
2017,11,17,08,51,5.10
2017,11,17,08,52,5.10
2017,11,17,08,53,5.10
2017,11,17,08,54,5.10
2017,11,17,08,55,5.10
2017,11,17,08,56,5.10
2017,11,17,08,57,5.10
2017,11,17,08,58,5.10
2017,11,17,08,59,5.10
2017,11,17,09,00,5.10
2017,11,17,09,01,5.10
2017,11,17,09,02,5.10
2017,11,17,09,03,5.10
2017,11,17,09,04,5.10
2017,11,17,09,05,5.10
2017,11,17,09,06,5.10
2017,11,17,09,07,5.10
2017,11,17,09,08,5.10
2017,11,17,09,09,5.10
2017,11,17,09,10,5.10
2017,11,17,09,11,5.10
2017,11,17,09,12,5.10
2017,11,17,09,13,5.20
2017,11,17,09,14,5.20
2017,11,17,09,15,5.20
2017,11,17,09,16,5.20
2017,11,17,09,17,5.30
2017,11,17,09,18,5.40
2017,11,17,09,19,5.40
2017,11,17,09,20,5.50
2017,11,17,09,21,5.50
2017,11,17,09,22,5.60
2017,11,17,09,23,5.60
2017,11,17,09,24,5.70
2017,11,17,09,25,5.80
2017,11,17,09,26,5.90
2017,11,17,09,27,5.90
2017,11,17,09,28,5.90
2017,11,17,09,29,6.00
2017,11,17,09,30,6.10
2017,11,17,09,31,6.10
2017,11,17,09,32,6.10
2017,11,17,09,33,6.10
2017,11,17,09,34,6.10
2017,11,17,09,35,6.10
2017,11,17,09,36,6.10
2017,11,17,09,37,6.10
2017,11,17,09,38,6.20
2017,11,17,09,39,6.20
2017,11,17,09,40,6.20
2017,11,17,09,41,6.20
2017,11,17,09,42,6.20
2017,11,17,09,43,6.20
2017,11,17,09,44,6.20
2017,11,17,09,45,6.20
2017,11,17,09,46,6.20
2017,11,17,09,47,6.20
2017,11,17,09,48,6.20
2017,11,17,09,49,6.10
2017,11,17,09,50,6.00
2017,11,17,09,51,5.90
2017,11,17,09,52,5.80
2017,11,17,09,53,5.70
2017,11,17,09,54,5.70
2017,11,17,09,55,5.60
2017,11,17,09,56,5.50
2017,11,17,09,57,5.50
2017,11,17,09,58,5.40
2017,11,17,09,59,5.30
2017,11,17,10,00,5.20
2017,11,17,10,01,5.20
2017,11,17,10,02,5.20
2017,11,17,10,03,5.10
2017,11,17,10,04,5.10
2017,11,17,10,05,5.10
2017,11,17,10,06,5.10
2017,11,17,10,07,5.00
2017,11,17,10,08,5.10
2017,11,17,10,09,5.10
2017,11,17,10,10,5.10
2017,11,17,10,11,5.10
2017,11,17,10,12,5.20
2017,11,17,10,13,5.20
2017,11,17,10,14,5.30
2017,11,17,10,15,5.30
2017,11,17,10,16,5.40
2017,11,17,10,17,5.50
2017,11,17,10,18,5.50
2017,11,17,10,19,5.60
2017,11,17,10,20,5.70
2017,11,17,10,21,5.70
2017,11,17,10,22,5.80
2017,11,17,10,23,5.80
2017,11,17,10,24,5.90
2017,11,17,10,25,5.90
2017,11,17,10,26,6.00
2017,11,17,10,27,6.00
2017,11,17,10,28,6.10
2017,11,17,10,29,6.10
2017,11,17,10,30,6.20
2017,11,17,10,31,6.20
2017,11,17,10,32,6.20
2017,11,17,10,33,6.30
2017,11,17,10,34,6.30
2017,11,17,10,35,6.30
2017,11,17,10,36,6.40
2017,11,17,10,37,6.40
2017,11,17,10,38,6.50
2017,11,17,10,39,6.50
2017,11,17,10,40,6.50
2017,11,17,10,41,6.60
2017,11,17,10,42,6.60
2017,11,17,10,43,6.60
2017,11,17,10,44,6.60
2017,11,17,10,45,6.60
2017,11,17,10,46,6.60
2017,11,17,10,47,6.60
2017,11,17,10,48,6.60
2017,11,17,10,49,6.60
2017,11,17,10,50,6.60
2017,11,17,10,51,6.60
2017,11,17,10,52,6.60
2017,11,17,10,53,6.60
2017,11,17,10,54,6.60
2017,11,17,10,55,6.60
2017,11,17,10,56,6.60
2017,11,17,10,57,6.70
2017,11,17,10,58,6.70
2017,11,17,10,59,6.70
2017,11,17,11,00,6.70
2017,11,17,11,01,6.70
2017,11,17,11,02,6.80
2017,11,17,11,03,6.80
2017,11,17,11,04,6.80
2017,11,17,11,05,6.80
2017,11,17,11,06,6.80
2017,11,17,11,07,6.90
2017,11,17,11,08,6.90
2017,11,17,11,09,6.90
2017,11,17,11,10,6.90
2017,11,17,11,11,6.90
2017,11,17,11,12,6.90
2017,11,17,11,13,7.00
2017,11,17,11,14,7.00
2017,11,17,11,15,7.00
2017,11,17,11,16,7.00
2017,11,17,11,17,7.00
2017,11,17,11,18,7.00
2017,11,17,11,19,7.00
2017,11,17,11,20,7.00
2017,11,17,11,21,7.10
2017,11,17,11,22,7.20
2017,11,17,11,23,7.20
2017,11,17,11,24,7.20
2017,11,17,11,25,7.20
2017,11,17,11,26,7.20
2017,11,17,11,27,7.20
2017,11,17,11,28,7.20
2017,11,17,11,29,7.20
2017,11,17,11,30,7.20
2017,11,17,11,31,7.20
2017,11,17,12,05,7.10
2017,11,17,12,06,7.10
2017,11,17,12,07,7.10
2017,11,17,12,08,7.10
2017,11,17,12,09,7.20
2017,11,17,12,10,7.20
2017,11,17,12,11,7.20
2017,11,17,12,12,7.20
2017,11,17,12,13,7.20
2017,11,17,12,14,7.20
2017,11,17,12,15,7.20
2017,11,17,12,16,7.20
2017,11,17,12,17,7.20
2017,11,17,12,18,7.20
2017,11,17,14,00,7.90
2017,11,17,14,01,7.90
2017,11,17,14,02,7.90
2017,11,17,14,03,7.90
2017,11,17,14,04,7.90
2017,11,17,14,05,7.90
2017,11,17,14,06,7.90
2017,11,17,14,07,7.80
2017,11,17,14,08,7.80
2017,11,17,14,09,7.80
2017,11,17,14,10,7.80
2017,11,17,14,11,7.70
2017,11,17,14,12,7.70
2017,11,17,14,13,7.70
2017,11,17,14,14,7.60
2017,11,17,14,15,7.60
2017,11,17,14,16,7.60
2017,11,17,14,17,7.60
2017,11,17,14,18,7.50
2017,11,17,14,19,7.50
2017,11,17,14,20,7.40
2017,11,17,14,21,7.40
2017,11,17,14,22,7.30
2017,11,17,14,23,7.30
2017,11,17,14,24,7.20
2017,11,17,14,25,7.20
2017,11,17,14,26,7.20
2017,11,17,14,27,7.20
2017,11,17,14,28,7.20
2017,11,17,14,29,7.10
2017,11,17,14,30,7.10
2017,11,17,14,31,7.10
2017,11,17,14,32,7.10
2017,11,17,14,33,7.10
2017,11,17,14,34,7.00
2017,11,17,14,35,7.00
2017,11,17,14,36,7.00
2017,11,17,14,37,7.00
2017,11,17,14,38,7.00
2017,11,17,14,39,7.10
2017,11,17,14,40,7.10
2017,11,17,14,41,7.10
2017,11,17,14,42,7.20
2017,11,17,14,43,7.20
2017,11,17,14,44,7.20
2017,11,17,14,45,7.10
2017,11,17,14,46,7.10
2017,11,17,14,47,7.10
2017,11,17,14,48,7.10
2017,11,17,14,49,7.10
2017,11,17,14,50,7.10
2017,11,17,14,51,7.10
2017,11,17,14,52,7.10
2017,11,17,14,53,7.10
2017,11,17,14,54,7.00
2017,11,17,14,55,7.00
2017,11,17,14,56,7.00
2017,11,17,14,57,7.00
2017,11,17,14,58,7.00
2017,11,17,14,59,7.00
2017,11,17,15,00,7.00
2017,11,17,15,01,7.00
2017,11,17,15,02,7.00
2017,11,17,15,03,7.00
2017,11,17,15,04,7.00
2017,11,17,15,05,7.00
2017,11,17,15,06,7.00
2017,11,17,15,07,7.00
2017,11,17,15,08,7.00
2017,11,17,15,09,7.00
2017,11,17,15,10,6.90
2017,11,17,15,11,6.90
2017,11,17,15,12,6.90
2017,11,17,15,13,6.90
2017,11,17,15,14,6.90
2017,11,17,15,15,6.90
2017,11,17,15,16,6.80
2017,11,17,15,17,6.80
2017,11,17,15,18,6.80
2017,11,17,15,19,6.80
2017,11,17,15,20,6.80
2017,11,17,15,21,6.70
2017,11,17,15,22,6.70
2017,11,17,15,23,6.70
2017,11,17,15,24,6.70
2017,11,17,15,25,6.70
2017,11,17,15,26,6.70
2017,11,17,15,27,6.70
2017,11,17,15,28,6.70
2017,11,17,15,29,6.70
2017,11,17,15,30,6.70
2017,11,17,15,31,6.70
2017,11,17,15,32,6.70
2017,11,17,15,33,6.80
2017,11,17,15,34,6.80
2017,11,17,15,35,6.80
2017,11,17,15,36,6.80
2017,11,17,15,37,6.80
2017,11,17,15,38,6.80
2017,11,17,15,39,6.80
2017,11,17,15,40,6.80
2017,11,17,15,41,6.80
2017,11,17,15,42,6.80
2017,11,17,15,43,6.80
2017,11,17,15,44,6.80
2017,11,17,15,45,6.80
2017,11,17,15,46,6.80
2017,11,17,15,47,6.80
2017,11,17,15,48,6.80
2017,11,17,15,49,6.80
2017,11,17,15,50,6.80
2017,11,17,15,51,6.90
2017,11,17,15,52,6.90
2017,11,17,15,53,6.90
2017,11,17,15,54,6.90
2017,11,17,15,55,6.90
2017,11,17,15,56,6.90
2017,11,17,15,57,6.90
2017,11,17,15,58,6.90
2017,11,17,15,59,6.90
2017,11,17,16,00,6.80
2017,11,17,16,01,6.80
2017,11,17,16,02,6.80
2017,11,17,16,03,6.80
2017,11,17,16,04,6.80
2017,11,17,16,05,6.80
2017,11,17,16,06,6.80
2017,11,17,16,07,6.80
2017,11,17,16,08,6.80
2017,11,17,16,09,6.70
2017,11,17,16,10,6.70
2017,11,17,16,11,6.70
2017,11,17,16,12,6.70
2017,11,17,16,13,6.70
2017,11,17,16,14,6.70
2017,11,17,16,15,6.70
2017,11,17,16,16,6.70
2017,11,17,16,17,6.70
2017,11,17,16,18,6.60
2017,11,17,16,19,6.60
2017,11,17,16,20,6.60
2017,11,17,16,21,6.60
2017,11,17,16,22,6.60
2017,11,17,16,23,6.60
2017,11,17,16,24,6.50
2017,11,17,16,25,6.50
2017,11,17,16,26,6.50
2017,11,17,16,27,6.50
2017,11,17,16,28,6.40
2017,11,17,16,29,6.40
2017,11,17,16,30,6.40
2017,11,17,16,31,6.40
2017,11,17,16,32,6.40
2017,11,17,16,33,6.40
2017,11,17,16,34,6.40
2017,11,17,16,35,6.30
2017,11,17,16,36,6.30
2017,11,17,16,37,6.30
2017,11,17,16,38,6.30
2017,11,17,16,39,6.30
2017,11,17,16,40,6.30
2017,11,17,16,41,6.30
2017,11,17,16,42,6.30
2017,11,17,16,43,6.30
2017,11,17,16,44,6.20
2017,11,17,16,45,6.20
2017,11,17,16,46,6.10
2017,11,17,16,47,6.10
2017,11,17,16,48,6.00
2017,11,17,16,49,6.00
2017,11,17,16,50,6.00
2017,11,17,16,51,5.90
2017,11,17,16,52,5.90
2017,11,17,16,53,5.80
2017,11,17,16,54,5.80
2017,11,17,16,55,5.80
2017,11,17,16,56,5.70
2017,11,17,16,57,5.70
2017,11,17,16,58,5.60
2017,11,17,16,59,5.60
2017,11,17,17,00,5.60
2017,11,17,17,01,5.50
2017,11,17,17,02,5.40
2017,11,17,17,03,5.40
2017,11,17,17,04,5.40
2017,11,17,17,05,5.40
2017,11,17,17,06,5.30
2017,11,17,17,07,5.30
2017,11,17,17,08,5.30
2017,11,17,17,09,5.30
2017,11,17,17,10,5.20
2017,11,17,17,11,5.20
2017,11,17,17,12,5.20
2017,11,17,17,13,5.20
2017,11,17,17,14,5.20
2017,11,17,17,15,5.10
2017,11,17,17,16,5.10
2017,11,17,17,17,5.10
2017,11,17,17,18,5.10
2017,11,17,17,19,5.10
2017,11,17,17,20,5.00
2017,11,17,17,21,5.00
2017,11,17,17,22,5.00
2017,11,17,17,23,5.00
2017,11,17,17,24,4.90
2017,11,17,17,25,4.90
2017,11,17,17,26,4.90
2017,11,17,17,27,4.90
2017,11,17,17,28,4.90
2017,11,17,17,29,4.90
2017,11,17,17,30,4.90
2017,11,17,17,31,4.90
2017,11,17,17,32,4.90
2017,11,17,17,33,4.80
2017,11,17,17,34,4.80
2017,11,17,17,35,4.80
2017,11,17,17,36,4.80
2017,11,17,17,37,4.80
2017,11,17,17,38,4.80
2017,11,17,17,39,4.80
2017,11,17,17,40,4.80
2017,11,17,17,41,4.80
2017,11,17,17,42,4.80
2017,11,17,17,43,4.80
2017,11,17,17,44,4.80
2017,11,17,17,45,4.80
2017,11,17,17,46,4.80
2017,11,17,17,47,4.80
2017,11,17,17,48,4.90
2017,11,17,17,49,4.90
2017,11,17,17,50,5.00
2017,11,17,17,51,5.00
2017,11,17,17,52,5.10
2017,11,17,17,53,5.10
2017,11,17,17,54,5.10
2017,11,17,17,55,5.10
2017,11,17,17,56,5.10
2017,11,17,17,57,5.10
2017,11,17,17,58,5.20
2017,11,17,17,59,5.20
2017,11,17,18,00,5.20
2017,11,17,18,01,5.20
2017,11,17,18,02,5.20
2017,11,17,18,03,5.10
2017,11,17,18,04,5.10
2017,11,17,18,05,5.10
2017,11,17,18,06,5.10
2017,11,17,18,07,5.10
2017,11,17,18,08,5.10
2017,11,17,18,09,5.10
2017,11,17,18,10,5.00
2017,11,17,18,11,5.00
2017,11,17,18,12,5.00
2017,11,17,18,13,5.00
2017,11,17,18,14,5.00
2017,11,17,18,15,4.90
2017,11,17,18,16,4.90
2017,11,17,18,17,4.90
2017,11,17,18,18,4.90
2017,11,17,18,19,4.90
2017,11,17,18,20,5.00
2017,11,17,18,21,5.00
2017,11,17,18,22,5.00
2017,11,17,18,23,5.00
2017,11,17,18,24,5.00
2017,11,17,18,25,5.00
2017,11,17,18,26,5.00
2017,11,17,18,27,5.00
2017,11,17,18,28,5.00
2017,11,17,18,29,5.00
2017,11,17,18,30,5.00
2017,11,17,18,31,5.00
2017,11,17,18,32,5.10
2017,11,17,18,33,5.10
2017,11,17,18,34,5.10
2017,11,17,18,35,5.10
2017,11,17,18,36,5.10
2017,11,17,18,37,5.10
2017,11,17,18,38,5.10
2017,11,17,18,39,5.10
2017,11,17,18,40,5.10
2017,11,17,18,41,5.10
2017,11,17,18,42,5.20
2017,11,17,18,43,5.20
2017,11,17,18,44,5.20
2017,11,17,18,45,5.20
2017,11,17,18,46,5.20
2017,11,17,18,47,5.20
2017,11,17,18,48,5.20
2017,11,17,18,49,5.20
2017,11,17,18,50,5.20
2017,11,17,18,51,5.20
2017,11,17,18,52,5.20
2017,11,17,18,53,5.20
2017,11,17,18,54,5.20
2017,11,17,18,55,5.20
2017,11,17,18,56,5.30
2017,11,17,18,57,5.30
2017,11,17,18,58,5.30
2017,11,17,18,59,5.30
2017,11,17,19,00,5.30
2017,11,17,19,01,5.30
2017,11,17,19,02,5.30
2017,11,17,19,03,5.30
2017,11,17,19,04,5.30
2017,11,17,19,05,5.30
2017,11,17,19,06,5.30
2017,11,17,19,07,5.40
2017,11,17,19,08,5.40
2017,11,17,19,09,5.40
2017,11,17,19,10,5.40
2017,11,17,19,11,5.40
2017,11,17,19,12,5.40
2017,11,17,19,13,5.40
2017,11,17,19,14,5.40
2017,11,17,19,15,5.50
2017,11,17,19,16,5.50
2017,11,17,19,17,5.50
2017,11,17,19,18,5.60
2017,11,17,19,19,5.60
2017,11,17,19,20,5.60
2017,11,17,19,21,5.60
2017,11,17,19,22,5.60
2017,11,17,19,23,5.60
2017,11,17,19,24,5.60
2017,11,17,19,25,5.60
2017,11,17,19,26,5.60
2017,11,17,19,27,5.60
2017,11,17,19,28,5.60
2017,11,17,19,29,5.60
2017,11,17,19,30,5.60
2017,11,17,19,31,5.60
2017,11,17,19,32,5.60
2017,11,17,19,33,5.60
2017,11,17,19,34,5.60
2017,11,17,19,35,5.70
2017,11,17,19,36,5.70
2017,11,17,19,37,5.70
2017,11,17,19,38,5.70
2017,11,17,19,39,5.70
2017,11,17,19,40,5.70
2017,11,17,19,41,5.70
2017,11,17,19,42,5.70
2017,11,17,19,43,5.70
2017,11,17,19,44,5.70
2017,11,17,19,45,5.70
2017,11,17,19,46,5.70
2017,11,17,19,47,5.70
2017,11,17,19,48,5.80
2017,11,17,19,49,5.80
2017,11,17,19,50,5.80
2017,11,17,19,51,5.80
2017,11,17,19,52,5.80
2017,11,17,19,53,5.80
2017,11,17,19,54,5.80
2017,11,17,19,55,5.80
2017,11,17,19,56,5.80
2017,11,17,19,57,5.80
2017,11,17,19,58,5.80
2017,11,17,19,59,5.80
2017,11,17,20,00,5.80
2017,11,17,20,01,5.80
2017,11,17,20,02,5.80
2017,11,17,20,03,5.80
2017,11,17,20,04,5.80
2017,11,17,20,05,5.80
2017,11,17,20,06,5.80
2017,11,17,20,07,5.80
2017,11,17,20,08,5.80
2017,11,17,20,09,5.80
2017,11,17,20,10,5.80
2017,11,17,20,11,5.80
2017,11,17,20,12,5.80
2017,11,17,20,13,5.80
2017,11,17,20,14,5.80
2017,11,17,20,15,5.80
2017,11,17,20,16,5.80
2017,11,17,20,17,5.80
2017,11,17,20,18,5.80
2017,11,17,20,19,5.80
2017,11,17,20,20,5.80